GOSAT (IBUKI)

Last updated on Sun Jun 21 2026 00:02:51 GMT+0000 (Coordinated Universal Time)

1 33492U 09002A 26171.20655268 .00000825 00000+0 15400-3 0 9990 2 33492 98.0896 282.2496 0001472 79.8858 280.2513 14.67540318931907
UTC large
Height (km)
Speed (km/s)
/
Latitude / Longitude
Inclination (degrees)
Orbital Period (minutes)
Azimuth
Elevation
Range (km)
Doppler Factor

Next 0 passes for location: London (51.5072 / 0.1276)

No passes found over London.
GOSAT (IBUKI)